Home > Weather > Camagüey > Past weeks

Flag for Cuba Weather for the Past 2 Weeks in Camagüey, Cuba

Now
75 °F

Clear.


Feels Like: 74 °F
Forecast: 74 / 90 °F
Wind: 6 mph from East

Location: Camaguey Aeropuerto

Current Time: May 3, 2016 at 3:38:17 AM

Latest Report: May 3, 2016 at 2:50 AM


Visibility: 6 mi

Pressure: 29.98 "Hg

Humidity: 94%

Dew Point: 73 °F

Location of CamagüeyLocation

Historic Weather in Camagüey — Graph

°F

Camagüey Temperature Yesterday

Maximum temperature yesterday: 91 °F (at 2:50 PM)
Minimum temperature yesterday: 73 °F (at 8:51 PM)
Average temperature yesterday: 80 °F

High & Low Weather Summary for the Past Weeks

 TemperatureHumidityPressure
High91 °F (Apr 28, 2:50 PM)94% (Apr 22, 8:50 PM)30.09 "Hg (Apr 22, 8:50 PM)
Low64 °F (Apr 19, 5:50 AM)29% (Apr 19, 1:50 PM)29.86 "Hg (Apr 27, 3:50 PM)
Average77 °F68%29.98 "Hg
* Reported Apr 18 1:50 AM — May 3 1:50 AM, Camagüey, Weather by CustomWeather, © 2016

Note: Actual official high and low records may vary slightly from our data, if they occured in-between our weather recording intervals... More about our weather records

Advertising

Camagüey Weather History for the Previous 24 Hours

Scroll right to see more
 ConditionsComfort  
Time TempWeatherWind HumidityBarometerVisibility
1:50 AM
Tue, May 3
75 °FClear.6 mph94%30.01 "Hg6 mi
12:50 AM75 °FPassing clouds.8 mph94%30.01 "Hg6 mi
11:50 PM
Mon, May 2
77 °FPassing clouds.9 mph89%30.04 "Hg6 mi
10:50 PM77 °FPassing clouds.9 mph89%30.04 "Hg6 mi
9:50 PM75 °FLight rain. Passing clouds.8 mph89%30.01 "Hg5 mi
8:51 PM73 °FStrong thunderstorms. Overcast.6 mph94%30.01 "Hg1 mi
7:51 PM79 °FThunderstorms. Partly sunny.5 mph70%29.98 "Hg6 mi
6:50 PM79 °FThunderstorms. Partly sunny.9 mph70%N/A6 mi
5:51 PM84 °FBroken clouds.16 mph62%29.95 "Hg6 mi
4:52 PM86 °FPartly sunny.16 mph59%29.92 "Hg6 mi
3:53 PM88 °FRain. Partly sunny.13 mph52%29.92 "Hg6 mi
2:50 PM91 °FPartly sunny.5 mph41%29.95 "Hg6 mi
1:53 PM90 °FPartly sunny.9 mph43%29.98 "Hg6 mi
12:50 PM88 °FPartly sunny.8 mph49%30.01 "Hg6 mi
11:51 AM88 °FScattered clouds.10 mph49%30.01 "Hg6 mi
10:50 AM86 °FScattered clouds.14 mph55%30.01 "Hg6 mi
9:51 AM82 °FScattered clouds.15 mph66%30.01 "Hg6 mi
8:53 AM81 °FScattered clouds.15 mph70%30.01 "Hg6 mi
7:52 AM77 °FPassing clouds.15 mph83%30.01 "Hg6 mi
6:53 AM75 °FPassing clouds.12 mph89%29.98 "Hg6 mi
5:55 AM75 °FPassing clouds.13 mph89%29.98 "Hg6 mi
4:52 AM75 °FPassing clouds.10 mph89%29.95 "Hg6 mi
3:52 AM75 °FPassing clouds.9 mph89%29.95 "Hg6 mi
Weather by CustomWeather, © 2016

See weather overviewHow to use our weather pages